Le nostre stazioni meteo in Italia

Pubblicità
Il mio iltempo24.it
Bologna/Borgo Panigale, Italia (16140): Temperatura & dewpoint: 11.02.2019 14:00:00 - 17.02.2019 14:00:00 (CET)Bologna/Borgo Panigale, Italia (16140): velocità del vento: 11.02.2019 14:00:00 - 17.02.2019 14:00:00 (CET)Bologna/Borgo Panigale, Italia (16140): direzione del vento: 11.02.2019 14:00:00 - 17.02.2019 14:00:00 (CET)Bologna/Borgo Panigale, Italia (16140): reduced air pressure: 11.02.2019 14:00:00 - 17.02.2019 14:00:00 (CET)Bologna/Borgo Panigale, Italia (16140): visibility: 11.02.2019 14:00:00 - 17.02.2019 14:00:00 (CET)Bologna/Borgo Panigale, Italia (16140): precipitazioni: 11.02.2019 14:00:00 - 17.02.2019 14:00:00 (CET)
Data & Tempo tt [°C] td [°C] ff [km/h] ff [kn] dd ppp [hPa] vv [km] rr [mm]
17.02.2019 14:00:00 - - - - - - - -
17.02.2019 13:00:00 14,5 2,8 11 6 ONO 1028,1 5 -
17.02.2019 12:00:00 12,0 3,0 13 7 ONO - 5 -
17.02.2019 11:00:00 - - - - - - - -
17.02.2019 10:00:00 9,1 1,1 8 4 OSO 1029,4 10 0,0
17.02.2019 09:00:00 5,0 -1,0 5 3 OSO - 10 -
17.02.2019 08:00:00 3,0 -2,0 8 4 SSO - 10 -
17.02.2019 07:00:00 2,7 -1,9 16 9 SSO 1029,0 10 -
17.02.2019 06:00:00 3,0 -2,0 15 8 SSO - 10 -
17.02.2019 05:00:00 3,0 -2,0 13 7 SSO - 10 -
17.02.2019 04:00:00 3,8 -1,2 13 7 SSO 1028,9 10 0,0
17.02.2019 03:00:00 4,0 -1,0 15 8 SSO - 10 -
17.02.2019 02:00:00 5,0 0,0 16 9 SSO - 10 -
17.02.2019 01:00:00 4,8 -0,3 15 8 SSO 1029,8 10 -
17.02.2019 00:00:00 6,0 0,0 15 8 SSO - 10 -
16.02.2019 23:00:00 6,0 1,0 13 7 SSO - 10 -
16.02.2019 22:00:00 6,2 1,3 9 5 SSO 1030,1 10 0,0
16.02.2019 21:00:00 6,0 1,0 5 3 SSO - 10 -
16.02.2019 20:00:00 7,0 2,0 4 2 SSO - 10 -
16.02.2019 19:00:00 8,3 1,7 2 1 - 1029,9 9 -
16.02.2019 18:00:00 12,0 2,0 4 2 NNE - 8 -
16.02.2019 17:00:00 14,0 2,0 5 3 NE - 8 -
16.02.2019 16:00:00 14,8 1,5 2 1 - 1030,1 8 0,0
16.02.2019 15:00:00 14,0 2,0 4 2 - - 8 -
16.02.2019 14:00:00 14,0 2,0 8 4 - - 7 -
16.02.2019 13:00:00 12,7 2,2 11 6 O 1032,0 7 -
16.02.2019 12:00:00 10,0 2,0 13 7 O - 7 -
16.02.2019 11:00:00 9,0 2,0 13 7 O - 8 -
16.02.2019 10:00:00 7,2 0,8 13 7 O 1033,0 10 0,0
16.02.2019 09:00:00 5,0 0,0 5 3 OSO - 10 -
16.02.2019 08:00:00 2,0 -2,0 8 4 SO - 10 -
16.02.2019 07:00:00 1,7 -1,2 9 5 SO 1032,1 10 -
16.02.2019 06:00:00 1,0 -1,0 5 3 OSO - 10 -
16.02.2019 05:00:00 2,0 -1,0 8 4 SO - 10 -
16.02.2019 04:00:00 1,5 -1,2 9 5 OSO 1032,1 10 0,0
16.02.2019 03:00:00 4,0 -1,0 5 3 SSO - 10 -
16.02.2019 02:00:00 5,0 0,0 9 5 S - 10 -
16.02.2019 01:00:00 5,1 0,4 13 7 SSO 1032,6 10 -
16.02.2019 00:00:00 5,0 0,0 5 3 S - 7 -
15.02.2019 23:00:00 6,0 1,0 5 3 SO - 7 -
15.02.2019 22:00:00 5,3 0,9 8 4 SSO 1031,9 7 0,0
15.02.2019 21:00:00 7,0 3,0 11 6 E - 6 -
15.02.2019 20:00:00 9,0 2,0 8 4 E - 7 -
15.02.2019 19:00:00 9,9 1,1 8 4 E 1031,5 10 -
15.02.2019 18:00:00 11,0 1,0 11 6 E - 10 -
15.02.2019 17:00:00 13,0 2,0 13 7 E - 10 -
15.02.2019 16:00:00 14,0 0,9 8 4 ENE 1030,5 10 0,0
15.02.2019 15:00:00 14,0 1,0 8 4 NNO - 10 -
15.02.2019 14:00:00 13,0 1,0 8 4 ONO - 10 -
15.02.2019 13:00:00 12,2 1,4 9 5 ONO 1031,8 10 -
15.02.2019 12:00:00 11,0 1,0 5 3 O - 10 -
15.02.2019 11:00:00 9,0 0,0 8 4 ONO - 10 -
15.02.2019 10:00:00 7,5 -0,5 8 4 OSO 1033,0 10 0,0
15.02.2019 09:00:00 4,0 -1,0 8 4 SSO - 10 -
15.02.2019 08:00:00 2,0 -2,0 11 6 SSO - 10 -
15.02.2019 07:00:00 2,0 -2,2 9 5 SSO 1032,9 10 -
15.02.2019 06:00:00 2,0 -2,0 9 5 SSO - 10 -
15.02.2019 05:00:00 1,0 -2,0 11 6 SO - 10 -
15.02.2019 04:00:00 1,9 -2,4 5 3 SO 1032,8 10 0,0
15.02.2019 03:00:00 3,0 -2,0 5 3 SO - 10 -
15.02.2019 02:00:00 3,0 -2,0 9 5 SO - 10 -
15.02.2019 01:00:00 2,9 -1,7 11 6 SSO 1033,4 10 -
15.02.2019 00:00:00 4,0 -1,0 11 6 SSO - 10 -
14.02.2019 23:00:00 4,0 -1,0 4 2 - - 10 -
14.02.2019 22:00:00 5,0 -0,4 9 5 SO 1032,8 10 0,0
14.02.2019 21:00:00 5,0 0,0 4 2 SSO - 10 -
14.02.2019 20:00:00 3,0 -1,0 5 3 SE - 10 -
14.02.2019 19:00:00 6,6 0,3 5 3 ESE 1033,0 10 -
14.02.2019 18:00:00 10,0 0,0 4 2 NE - 10 -
14.02.2019 17:00:00 13,0 0,0 5 3 NNO - 10 -
14.02.2019 16:00:00 13,5 0,4 5 3 NNE 1032,7 10 0,0
14.02.2019 15:00:00 14,0 -1,0 5 3 NNO - 10 -
14.02.2019 14:00:00 13,0 0,0 8 4 - - 10 -
14.02.2019 13:00:00 12,3 -0,6 9 5 OSO 1034,4 10 -
14.02.2019 12:00:00 10,0 0,0 8 4 O - 10 -
14.02.2019 11:00:00 9,0 0,0 15 8 O - 10 -
14.02.2019 10:00:00 7,1 -1,8 9 5 SSO 1036,6 10 0,0
14.02.2019 09:00:00 3,0 -3,0 4 2 - - 10 -
14.02.2019 08:00:00 1,0 -4,0 13 7 SSO - 10 -
14.02.2019 07:00:00 1,1 -4,1 15 8 SSO 1036,5 10 -
14.02.2019 06:00:00 1,0 -4,0 13 7 SSO - 10 -
14.02.2019 05:00:00 2,0 -4,0 15 8 SSO - 10 -
14.02.2019 04:00:00 1,7 -3,7 15 8 SSO 1037,2 10 0,0
14.02.2019 03:00:00 2,0 -4,0 11 6 SSO - 10 -
14.02.2019 02:00:00 2,0 -4,0 11 6 SSO - 10 -
14.02.2019 01:00:00 3,0 -3,3 16 9 SSO 1037,7 10 -
14.02.2019 00:00:00 3,0 -3,0 11 6 SSO - 10 -
13.02.2019 23:00:00 3,0 -3,0 9 5 SO - 10 -
13.02.2019 22:00:00 3,6 -3,0 8 4 SSO 1037,4 10 0,0
13.02.2019 21:00:00 5,0 -3,0 4 2 - - 10 -
13.02.2019 20:00:00 5,0 -4,0 8 4 E - 10 -
13.02.2019 19:00:00 7,3 -3,7 8 4 E 1035,9 10 -
13.02.2019 18:00:00 11,0 -4,0 5 3 ENE - 10 -
13.02.2019 17:00:00 12,0 -5,0 5 3 ENE - 10 -
13.02.2019 16:00:00 12,6 -4,7 8 4 E 1034,9 10 0,0
13.02.2019 15:00:00 13,0 -4,0 5 3 NE - 10 -
13.02.2019 14:00:00 12,0 -3,0 5 3 N - 10 -
13.02.2019 13:00:00 10,6 -2,1 4 2 - 1035,7 10 -
13.02.2019 12:00:00 9,0 -2,0 8 4 N - 10 -
13.02.2019 11:00:00 6,0 -4,0 4 2 - - 10 -
13.02.2019 10:00:00 4,8 -4,2 5 3 O 1036,4 10 0,0
13.02.2019 09:00:00 2,0 -4,0 5 3 SO - 10 -
13.02.2019 08:00:00 1,0 -5,0 5 3 SO - 10 -
13.02.2019 07:00:00 -1,0 -5,8 4 2 - 1034,2 10 -
13.02.2019 06:00:00 -3,0 -6,0 0 0 N - 10 -
13.02.2019 05:00:00 -2,0 -5,0 5 3 SSO - 10 -
13.02.2019 04:00:00 -1,8 -4,5 2 1 N 1032,5 - 0,0
13.02.2019 03:00:00 -1,0 -5,0 2 1 - - 10 -
13.02.2019 02:00:00 0,0 -5,0 2 1 - - 10 -
13.02.2019 01:00:00 0,0 -5,6 4 2 - 1031,5 10 -
13.02.2019 00:00:00 2,0 -5,0 2 1 - - 10 -
12.02.2019 23:00:00 3,0 -5,0 2 1 - - 10 -
12.02.2019 22:00:00 4,8 -5,6 5 3 SSO 1028,8 10 0,0
12.02.2019 21:00:00 6,0 -6,0 5 3 SE - 10 -
12.02.2019 20:00:00 5,0 -7,0 11 6 E - 10 -
12.02.2019 19:00:00 5,6 -5,3 4 2 - 1025,8 10 -
12.02.2019 18:00:00 10,0 -8,0 2 1 - - 10 -
12.02.2019 17:00:00 13,0 -9,0 9 5 NO - 10 -
12.02.2019 16:00:00 14,3 -10,0 22 12 ONO 1023,6 10 0,0
12.02.2019 15:00:00 15,0 -9,0 21 11 ONO - 10 -
12.02.2019 14:00:00 15,0 -10,0 21 11 ONO - 10 -
12.02.2019 13:00:00 14,5 -9,2 24 13 O 1023,8 10 -
12.02.2019 12:00:00 13,0 -9,0 22 12 ONO - 10 -
12.02.2019 11:00:00 13,0 -9,0 21 11 ONO - 10 -
12.02.2019 10:00:00 10,8 -7,6 18 10 O 1024,7 10 0,0
12.02.2019 09:00:00 7,0 -8,0 15 8 O - 10 -
12.02.2019 08:00:00 4,0 -8,0 15 8 O - 10 -
12.02.2019 07:00:00 4,7 -8,9 16 9 O 1024,1 10 -
12.02.2019 06:00:00 5,0 -9,0 16 9 O - 10 -
12.02.2019 05:00:00 4,0 -9,0 15 8 O - 10 -
12.02.2019 04:00:00 3,4 -8,4 15 8 O 1022,5 10 0,0
12.02.2019 03:00:00 4,0 -8,0 9 5 O - 10 -
12.02.2019 02:00:00 6,0 -8,0 11 6 O - 10 -
12.02.2019 01:00:00 6,1 -8,0 16 9 O 1021,6 10 -
12.02.2019 00:00:00 7,0 -8,0 21 11 O - 10 -
11.02.2019 23:00:00 7,0 -8,0 18 10 O - 10 -
11.02.2019 22:00:00 8,3 -8,0 21 11 O 1019,1 10 0,0
11.02.2019 21:00:00 9,0 -8,0 22 12 O - 10 -
11.02.2019 20:00:00 9,0 -7,0 22 12 O - 10 -
11.02.2019 19:00:00 9,0 -5,9 16 9 ONO 1015,8 10 -
11.02.2019 18:00:00 10,0 -5,0 16 9 ONO - 10 -
11.02.2019 17:00:00 12,0 -5,0 18 10 ONO - 10 -
11.02.2019 16:00:00 12,7 -5,1 18 10 NO 1012,6 10 0,0
11.02.2019 15:00:00 13,0 -1,0 22 12 ONO - 10 -
11.02.2019 14:00:00 13,0 -2,0 29 16 ONO - 10 -

tt = Temperatura
td = dewpoint
ff = velocità del vento
dd = direzione del vento
ppp = reduced air pressure
vv = visibility
rr = precipitazioni

Stazioni seguenti

WeatherPro
AMSI
MeteoEarth